"startDT [UTC]","vpos","CH4 [ppm]","stdev(CH4) [ppm]","CO2 [ppm]","stdev(CO2) [ppm]","H2O [ppm]","stdev(H2O)","p_LGR [torr]","T_LGR [C]","mt1_LGR [us]","mt2_LGR [us]","T_ECpre [C]","T_EC1 [C]","T_EC2 [C]","p_inlet [hPa]","p_in [hPa]","p_out [hPa]","T_inlet [C]","RH_inlet [%]","dwpt_inlet [C]","T_vent [C]","RH_vent [%]","dwpt_vent [C]","flow_vent [l min-1]","flow_inlet [l min-1]","dwpt_sample [C]","T_room [C]"
2012-09-02 00:00:00,0.0,1.9351,0.0008,387.94,0.32,260.1,32.5,138.03,31.91,24.65,36.50,0.90,-26.08,5.33,-46,39,-940,24.1,21.2,0.5,24.3,1.8,-29.0,5.73,2.56,-27.1,30.9
2012-09-02 00:01:00,0.0,1.9355,0.0009,387.88,0.31,252.8,34.4,138.03,31.91,24.65,36.50,0.90,-26.06,5.87,-46,39,-940,24.1,21.2,0.5,24.3,1.8,-29.0,5.73,2.54,-27.1,30.8
2012-09-02 00:02:00,0.0,1.9338,0.0010,387.80,0.30,256.8,31.9,138.03,31.91,24.65,36.50,0.91,-26.05,6.39,-46,39,-940,24.1,21.0,0.4,24.3,1.8,-28.9,5.73,2.53,-27.2,30.9
2012-09-02 00:03:00,0.0,1.9334,0.0011,387.56,0.33,250.9,30.9,138.03,31.90,24.66,36.50,0.92,-26.04,6.88,-46,39,-940,24.1,20.9,0.3,24.3,1.8,-29.0,5.73,2.54,-27.2,30.9
2012-09-02 00:04:00,0.0,1.9332,0.0011,387.53,0.37,257.6,35.7,138.03,31.90,24.65,36.50,0.93,-26.03,7.36,-46,39,-939,24.1,20.8,0.2,24.3,1.8,-29.0,5.73,2.55,-27.2,30.9
2012-09-02 00:05:00,0.0,1.9337,0.0009,387.65,0.31,245.8,33.3,138.03,31.90,24.65,36.50,0.93,-26.02,7.82,-46,39,-939,24.1,21.0,0.4,24.3,1.8,-29.0,5.73,2.56,-27.2,30.8
2012-09-02 00:06:00,0.0,1.9338,0.0010,387.80,0.32,253.3,32.9,138.03,31.90,24.65,36.50,0.94,-26.01,8.26,-46,39,-939,24.1,20.7,0.1,24.3,1.8,-29.0,5.73,2.54,-27.2,30.8
2012-09-02 00:07:00,0.0,1.9344,0.0009,387.66,0.33,245.9,33.6,138.03,31.89,24.65,36.50,0.95,-26.00,8.68,-46,39,-939,24.1,20.7,0.2,24.3,1.8,-29.0,5.73,2.53,-27.2,30.8
2012-09-02 00:08:00,0.0,1.9347,0.0010,387.57,0.36,244.3,30.4,138.03,31.89,24.65,36.51,0.94,-25.99,9.09,-46,39,-939,24.1,20.9,0.3,24.3,1.8,-29.0,5.73,2.53,-27.2,30.8
2012-09-02 00:09:00,0.0,1.9344,0.0010,387.58,0.33,247.0,30.9,138.03,31.89,24.65,36.50,0.92,-25.98,9.49,-46,39,-939,24.1,21.0,0.4,24.3,1.8,-29.0,5.73,2.55,-27.2,30.8
2012-09-02 00:10:00,0.0,1.9332,0.0011,387.69,0.31,246.4,32.2,138.03,31.89,24.65,36.50,0.90,-25.97,9.87,-46,39,-939,24.1,20.5,0.1,24.3,1.8,-29.0,5.73,2.56,-27.2,30.9
2012-09-02 00:11:00,0.0,1.9331,0.0009,387.68,0.27,243.0,32.0,138.04,31.88,24.65,36.50,0.89,-25.96,10.24,-46,39,-939,24.1,20.2,-0.2,24.3,1.8,-29.0,5.73,2.55,-27.2,30.8
2012-09-02 00:12:00,0.0,1.9334,0.0008,387.59,0.30,237.7,32.1,138.03,31.88,24.65,36.50,0.89,-25.96,10.60,-46,39,-939,24.1,20.3,-0.1,24.3,1.8,-29.0,5.73,2.53,-27.2,30.8
2012-09-02 00:13:00,0.0,1.9338,0.0011,387.50,0.28,247.5,32.6,138.03,31.88,24.65,36.50,0.91,-25.95,10.94,-46,39,-939,24.1,20.5,0.1,24.3,1.8,-29.1,5.73,2.54,-27.2,30.7
2012-09-02 00:14:00,0.0,1.9333,0.0012,387.60,0.27,249.2,32.5,138.04,31.88,24.65,36.50,0.92,-25.94,11.28,-46,39,-939,24.1,20.4,-0.0,24.3,1.8,-29.1,5.73,2.55,-27.2,30.6
2012-09-02 00:15:00,0.0,1.9332,0.0010,387.46,0.32,248.9,36.0,138.03,31.87,24.65,36.50,0.92,-25.94,11.60,-46,39,-939,24.1,20.6,0.2,24.3,1.8,-29.1,5.73,2.56,-27.2,30.7
2012-09-02 00:16:00,0.0,1.9322,0.0010,387.50,0.36,250.0,33.8,138.03,31.87,24.65,36.50,0.91,-25.93,11.91,-46,39,-940,24.1,20.2,-0.1,24.3,1.8,-29.2,5.73,2.55,-27.2,30.7
2012-09-02 00:17:00,0.0,1.9318,0.0009,387.37,0.32,252.8,29.9,138.04,31.87,24.65,36.50,0.93,-25.92,12.21,-46,39,-939,24.1,20.0,-0.3,24.3,1.8,-29.1,5.73,2.53,-27.2,30.8
2012-09-02 00:18:00,0.0,1.9323,0.0009,387.35,0.36,247.2,32.9,138.03,31.87,24.65,36.50,0.93,-25.92,12.50,-46,39,-940,24.1,19.9,-0.3,24.3,1.8,-29.1,5.73,2.53,-27.2,30.8
2012-09-02 00:19:00,0.0,1.9312,0.0011,387.35,0.32,241.4,36.4,138.04,31.87,24.65,36.50,0.94,-25.92,12.77,-46,39,-939,24.1,19.3,-0.8,24.3,1.8,-29.1,5.73,2.55,-27.2,30.9
2012-09-02 00:20:00,0.0,1.9323,0.0009,387.42,0.31,239.2,35.0,138.03,31.86,24.65,36.50,0.94,-25.91,13.03,-46,39,-939,24.1,19.5,-0.6,24.3,1.8,-29.1,5.73,2.56,-27.2,30.9
2012-09-02 00:21:00,0.0,1.9332,0.0011,387.47,0.32,242.0,33.0,138.03,31.86,24.65,36.50,0.94,-25.90,13.29,-46,39,-939,24.1,19.9,-0.3,24.3,1.8,-29.2,5.73,2.55,-27.3,30.9
2012-09-02 00:22:00,0.0,1.9326,0.0010,387.38,0.26,242.2,38.7,138.03,31.85,24.65,36.50,0.94,-25.90,13.54,-46,39,-939,24.1,19.8,-0.4,24.2,1.8,-29.2,5.73,2.53,-27.3,30.8
2012-09-02 00:23:00,0.0,1.9327,0.0010,387.34,0.32,241.0,27.4,138.03,31.85,24.66,36.50,0.94,-25.89,13.77,-46,39,-939,24.1,20.0,-0.3,24.2,1.8,-29.1,5.73,2.53,-27.2,30.8
2012-09-02 00:24:00,0.0,1.9333,0.0010,387.26,0.31,244.4,30.6,138.04,31.85,24.65,36.50,0.94,-25.89,14.00,-46,39,-939,24.1,20.0,-0.3,24.2,1.8,-29.0,5.73,2.54,-27.2,30.8
2012-09-02 00:25:00,0.0,1.9323,0.0010,387.24,0.32,239.3,33.2,138.04,31.84,24.65,36.50,0.92,-25.89,14.22,-46,39,-939,24.1,19.6,-0.6,24.2,1.9,-28.9,5.73,2.56,-27.2,30.8
2012-09-02 00:26:00,0.0,1.9319,0.0012,387.27,0.29,243.1,29.5,138.04,31.84,24.65,36.51,0.90,-25.89,14.42,-46,39,-939,24.0,19.3,-0.8,24.2,1.9,-28.9,5.73,2.56,-27.3,30.8
2012-09-02 00:27:00,0.0,1.9331,0.0011,387.22,0.24,238.7,37.5,138.04,31.84,24.65,36.51,0.90,-25.88,14.61,-46,39,-939,24.0,19.5,-0.7,24.2,1.9,-28.8,5.73,2.54,-27.3,30.8
2012-09-02 00:28:00,0.0,1.9324,0.0015,387.29,0.29,248.1,37.2,138.04,31.83,24.65,36.50,0.91,-25.88,14.80,-46,39,-939,24.0,19.3,-0.8,24.2,1.9,-28.9,5.73,2.52,-27.3,30.8
2012-09-02 00:29:00,0.0,1.9315,0.0009,387.34,0.35,240.0,33.0,138.04,31.83,24.65,36.50,0.90,-25.88,14.98,-46,39,-939,24.0,18.9,-1.1,24.2,1.9,-28.8,5.73,2.53,-27.3,30.8
2012-09-02 00:30:00,0.0,1.9327,0.0010,387.24,0.27,246.3,32.4,138.04,31.82,24.65,36.50,0.91,-25.88,15.15,-46,39,-939,24.0,19.1,-1.0,24.2,1.9,-28.8,5.73,2.55,-27.3,30.8
2012-09-02 00:31:00,0.0,1.9325,0.0011,387.11,0.27,239.2,28.3,138.04,31.82,24.65,36.50,0.92,-25.88,15.32,-46,39,-939,24.0,19.4,-0.8,24.2,1.9,-28.8,5.73,2.56,-27.2,30.7
2012-09-02 00:32:00,0.0,1.9324,0.0011,387.13,0.29,243.1,31.9,138.04,31.81,24.65,36.50,0.91,-25.88,15.48,-46,39,-939,24.0,19.4,-0.8,24.1,1.9,-28.8,5.73,2.55,-27.2,30.7
2012-09-02 00:33:00,0.0,1.9316,0.0011,387.08,0.28,247.7,30.2,138.04,31.81,24.65,36.51,0.93,-25.88,15.62,-46,39,-939,24.0,19.2,-0.9,24.1,1.9,-28.8,5.73,2.53,-27.2,30.7
2012-09-02 00:34:00,0.0,1.9321,0.0010,387.11,0.30,245.5,33.2,138.04,31.81,24.65,36.50,0.92,-25.88,15.77,-46,39,-939,24.0,19.3,-0.8,24.1,1.9,-28.8,5.73,2.53,-27.2,30.7
2012-09-02 00:35:00,0.0,1.9322,0.0010,387.21,0.33,236.6,35.3,138.04,31.81,24.65,36.50,0.93,-25.87,15.91,-46,39,-939,24.0,19.4,-0.8,24.2,1.9,-28.8,5.73,2.55,-27.2,30.7
2012-09-02 00:36:00,0.0,1.9323,0.0011,387.21,0.26,240.4,32.9,138.04,31.81,24.66,36.50,0.94,-25.88,16.04,-46,39,-939,24.0,19.3,-0.8,24.2,1.9,-28.8,5.73,2.56,-27.2,30.8
2012-09-02 00:37:00,0.0,1.9322,0.0010,387.23,0.28,239.9,31.6,138.04,31.81,24.65,36.50,0.93,-25.87,16.17,-46,39,-939,24.0,19.0,-1.1,24.2,1.9,-28.7,5.73,2.55,-27.3,30.8
2012-09-02 00:38:00,0.0,1.9323,0.0008,387.13,0.32,240.3,33.7,138.04,31.80,24.65,36.51,0.94,-25.86,16.29,-46,39,-939,24.0,19.0,-1.1,24.1,1.9,-28.8,5.73,2.53,-27.3,30.8
2012-09-02 00:39:00,0.0,1.9329,0.0010,387.21,0.32,241.4,33.3,138.04,31.80,24.65,36.50,0.94,-25.87,16.40,-46,39,-939,23.9,19.2,-1.0,24.1,1.9,-28.8,5.73,2.53,-27.3,30.8
2012-09-02 00:40:00,0.0,1.9342,0.0011,387.27,0.32,238.8,30.6,138.04,31.79,24.65,36.50,0.94,-25.86,16.51,-46,39,-939,23.9,19.5,-0.8,24.1,1.9,-28.8,5.73,2.54,-27.3,30.8
2012-09-02 00:41:00,0.0,1.9334,0.0009,387.29,0.31,243.7,29.5,138.04,31.79,24.65,36.51,0.94,-25.86,16.62,-46,39,-939,23.9,19.3,-0.9,24.1,1.9,-28.8,5.73,2.56,-27.3,30.7
2012-09-02 00:42:00,0.0,1.9322,0.0010,387.43,0.31,243.4,31.6,138.04,31.78,24.66,36.50,0.94,-25.86,16.72,-46,39,-939,23.9,19.3,-0.9,24.1,1.9,-28.8,5.73,2.56,-27.3,30.8
2012-09-02 00:43:00,0.0,1.9329,0.0010,387.38,0.33,235.8,32.2,138.04,31.78,24.66,36.50,0.93,-25.86,16.82,-46,39,-939,23.9,19.4,-0.8,24.1,1.9,-28.8,5.73,2.54,-27.3,30.8
2012-09-02 00:44:00,0.0,1.9334,0.0010,387.26,0.33,241.9,34.1,138.04,31.77,24.66,36.50,0.94,-25.86,16.91,-46,39,-939,23.9,19.6,-0.8,24.0,1.9,-28.8,5.73,2.53,-27.3,30.7
2012-09-02 00:45:00,0.0,1.9335,0.0010,387.22,0.28,229.6,34.8,138.04,31.77,24.65,36.50,0.91,-25.86,17.00,-45,39,-939,23.9,19.6,-0.7,24.0,1.9,-28.8,5.73,2.54,-27.3,30.7
2012-09-02 00:46:00,0.0,1.9334,0.0008,387.17,0.25,243.2,32.4,138.04,31.77,24.65,36.50,0.90,-25.86,17.08,-45,39,-939,23.9,19.8,-0.6,24.0,1.9,-28.8,5.73,2.55,-27.3,30.6
2012-09-02 00:47:00,0.0,1.9325,0.0009,387.23,0.30,241.6,29.3,138.04,31.76,24.65,36.50,0.90,-25.86,17.16,-46,39,-939,23.8,19.6,-0.7,24.1,1.9,-28.8,5.73,2.56,-27.3,30.7
2012-09-02 00:48:00,0.0,1.9327,0.0011,387.16,0.31,240.4,35.0,138.04,31.76,24.66,36.50,0.92,-25.86,17.24,-46,39,-939,23.9,19.8,-0.6,24.1,1.9,-28.8,5.73,2.54,-27.3,30.7
2012-09-02 00:49:00,0.0,1.9327,0.0010,387.18,0.28,227.3,33.1,138.04,31.75,24.66,36.51,0.92,-25.86,17.31,-46,39,-939,23.8,20.1,-0.4,24.0,1.9,-28.8,5.73,2.53,-27.3,30.7
2012-09-02 00:50:00,0.0,1.9326,0.0009,387.27,0.32,240.9,32.8,138.04,31.75,24.65,36.50,0.92,-25.86,17.39,-45,39,-939,23.8,20.1,-0.4,24.0,1.9,-28.9,5.73,2.53,-27.3,30.7
2012-09-02 00:51:00,0.0,1.9322,0.0009,387.24,0.31,239.6,37.5,138.04,31.74,24.66,36.50,0.93,-25.85,17.45,-45,39,-939,23.8,19.8,-0.6,24.0,1.9,-28.9,5.73,2.55,-27.3,30.7
2012-09-02 00:52:00,0.0,1.9325,0.0011,387.20,0.30,230.9,30.9,138.04,31.74,24.65,36.50,0.93,-25.86,17.52,-46,39,-939,23.8,19.7,-0.7,24.0,1.9,-28.9,5.73,2.56,-27.3,30.7
2012-09-02 00:53:00,0.0,1.9326,0.0007,387.26,0.29,231.2,33.4,138.04,31.73,24.65,36.50,0.91,-25.86,17.58,-46,39,-939,23.8,19.8,-0.6,24.0,1.9,-28.9,5.73,2.55,-27.3,30.7
2012-09-02 00:54:00,0.0,1.9325,0.0009,387.27,0.29,239.8,35.6,138.04,31.72,24.65,36.50,0.93,-25.85,17.64,-46,39,-939,23.8,20.0,-0.5,24.0,1.9,-28.8,5.73,2.53,-27.3,30.6
2012-09-02 00:55:00,0.0,1.9324,0.0010,387.25,0.26,233.8,29.0,138.04,31.72,24.65,36.51,0.94,-25.85,17.70,-46,39,-939,23.8,19.6,-0.8,24.0,1.9,-28.8,5.73,2.53,-27.4,30.7
2012-09-02 00:56:00,0.0,1.9323,0.0010,387.26,0.26,239.7,34.0,138.04,31.71,24.66,36.50,0.93,-25.85,17.75,-46,39,-939,23.8,19.5,-0.9,24.0,1.9,-28.9,5.73,2.54,-27.4,30.6
2012-09-02 00:57:00,0.0,1.9334,0.0010,387.09,0.33,231.0,29.5,138.04,31.71,24.65,36.51,0.94,-25.85,17.80,-46,39,-939,23.8,19.7,-0.7,24.0,1.9,-28.9,5.73,2.56,-27.4,30.6
2012-09-02 00:58:00,0.0,1.9330,0.0010,387.08,0.29,237.3,30.1,138.04,31.70,24.65,36.51,0.94,-25.85,17.85,-46,39,-939,23.8,19.4,-0.9,24.0,1.9,-28.9,5.73,2.56,-27.4,30.7
2012-09-02 00:59:00,0.0,1.9333,0.0009,387.05,0.25,239.3,30.3,138.04,31.70,24.65,36.51,0.93,-25.86,17.90,-46,39,-939,23.8,19.5,-0.9,24.0,1.9,-28.9,5.73,2.54,-27.4,30.6
2012-09-02 01:00:00,0.0,1.9334,0.0010,387.23,0.31,240.7,25.3,138.04,31.69,24.65,36.50,0.93,-25.86,17.94,-46,39,-939,23.8,19.4,-0.9,24.0,1.9,-28.9,5.73,2.53,-27.4,30.6
2012-09-02 01:01:00,0.0,1.9335,0.0009,386.94,0.32,234.5,33.7,138.04,31.69,24.65,36.51,0.94,-25.85,17.99,-46,39,-939,23.8,20.0,-0.5,23.9,1.9,-28.9,5.73,2.54,-27.4,30.6
2012-09-02 01:02:00,0.0,1.9340,0.0009,387.03,0.35,234.4,37.0,138.04,31.68,24.65,36.50,0.95,-25.85,18.03,-46,39,-938,23.8,20.1,-0.5,24.0,1.9,-28.9,5.73,2.56,-27.4,30.6
2012-09-02 01:03:00,0.0,1.9333,0.0008,387.12,0.29,237.3,35.4,138.04,31.68,24.65,36.50,0.95,-25.86,18.06,-46,39,-939,23.8,19.9,-0.6,24.0,1.9,-28.9,5.73,2.56,-27.4,30.5
2012-09-02 01:04:00,0.0,1.9330,0.0010,387.16,0.30,238.6,27.5,138.04,31.68,24.65,36.50,0.95,-25.86,18.10,-46,39,-939,23.8,19.4,-0.9,24.0,1.9,-28.9,5.73,2.54,-27.4,30.6
2012-09-02 01:05:00,0.0,1.9331,0.0009,387.10,0.29,239.7,31.5,138.04,31.67,24.65,36.51,0.94,-25.86,18.14,-46,39,-939,23.8,19.3,-1.0,24.0,1.9,-28.9,5.73,2.53,-27.4,30.5
2012-09-02 01:06:00,0.0,1.9330,0.0009,387.16,0.26,239.5,30.5,138.04,31.67,24.66,36.50,0.94,-25.86,18.17,-46,39,-939,23.8,19.2,-1.1,24.0,1.9,-28.8,5.73,2.54,-27.4,30.6
2012-09-02 01:07:00,0.0,1.9330,0.0009,387.05,0.30,238.1,32.2,138.04,31.66,24.65,36.52,0.92,-25.86,18.21,-46,39,-939,23.8,19.3,-1.0,24.0,1.9,-28.9,5.73,2.56,-27.4,30.6
2012-09-02 01:08:00,0.0,1.9336,0.0011,387.11,0.28,244.4,34.8,138.04,31.66,24.65,36.51,0.92,-25.86,18.24,-46,39,-939,23.8,19.5,-0.9,24.0,1.9,-28.8,5.73,2.56,-27.4,30.6
2012-09-02 01:09:00,0.0,1.9335,0.0009,387.15,0.24,245.5,25.6,138.04,31.65,24.65,36.50,0.92,-25.86,18.26,-46,39,-939,23.8,19.5,-0.8,24.0,1.9,-28.8,5.73,2.54,-27.4,30.5
2012-09-02 01:10:00,0.0,1.9337,0.0009,387.03,0.26,238.8,29.9,138.04,31.65,24.65,36.51,0.92,-25.86,18.29,-45,39,-939,23.8,19.6,-0.8,24.0,1.9,-28.9,5.73,2.53,-27.4,30.5
2012-09-02 01:11:00,0.0,1.9340,0.0009,387.09,0.31,248.4,31.9,138.04,31.64,24.65,36.51,0.90,-25.86,18.32,-46,39,-939,23.8,19.6,-0.8,24.0,1.9,-28.8,5.73,2.54,-27.3,30.5
2012-09-02 01:12:00,0.0,1.9348,0.0009,387.16,0.31,246.3,30.3,138.04,31.64,24.65,36.50,0.92,-25.86,18.34,-46,39,-939,23.8,19.7,-0.7,24.0,1.9,-28.8,5.73,2.56,-27.4,30.5
2012-09-02 01:13:00,0.0,1.9347,0.0008,387.06,0.34,245.2,35.5,138.04,31.64,24.65,36.51,0.91,-25.86,18.37,-46,39,-939,23.8,19.5,-0.8,24.0,1.9,-28.8,5.73,2.56,-27.3,30.5
2012-09-02 01:14:00,0.0,1.9352,0.0008,387.14,0.23,249.3,29.7,138.04,31.63,24.65,36.50,0.91,-25.87,18.40,-46,39,-939,23.9,19.8,-0.6,24.0,1.9,-28.9,5.73,2.55,-27.4,30.5
2012-09-02 01:15:00,0.0,1.9358,0.0010,387.08,0.28,244.5,28.8,138.04,31.63,24.65,36.51,0.93,-25.86,18.42,-46,39,-939,23.9,20.0,-0.4,24.1,1.9,-28.8,5.73,2.53,-27.3,30.5
2012-09-02 01:16:00,0.0,1.9358,0.0011,387.04,0.24,247.3,33.0,138.04,31.63,24.65,36.50,0.92,-25.86,18.44,-46,39,-939,23.9,20.2,-0.3,24.1,1.9,-28.8,5.73,2.54,-27.3,30.5
2012-09-02 01:17:00,0.0,1.9359,0.0009,387.10,0.31,249.5,28.1,138.04,31.63,24.65,36.51,0.93,-25.86,18.46,-46,39,-939,23.9,20.3,-0.2,24.1,1.9,-28.8,5.73,2.56,-27.3,30.4
2012-09-02 01:18:00,0.0,1.9352,0.0009,387.12,0.25,249.1,29.3,138.04,31.62,24.65,36.50,0.93,-25.86,18.48,-46,39,-939,23.9,20.2,-0.3,24.1,1.9,-28.8,5.73,2.57,-27.3,30.4
2012-09-02 01:19:00,0.0,1.9350,0.0009,387.19,0.29,247.2,27.2,138.04,31.62,24.65,36.50,0.93,-25.86,18.50,-46,39,-939,24.0,20.1,-0.3,24.1,1.9,-28.8,5.73,2.54,-27.3,30.5
2012-09-02 01:20:00,0.0,1.9350,0.0009,387.26,0.30,249.7,32.0,138.04,31.62,24.65,36.50,0.93,-25.85,18.52,-46,39,-939,24.0,20.1,-0.3,24.1,1.9,-28.8,5.73,2.53,-27.3,30.6
2012-09-02 01:21:00,0.0,1.9345,0.0008,387.25,0.29,252.8,35.1,138.04,31.62,24.65,36.51,0.94,-25.85,18.54,-46,39,-939,24.0,19.6,-0.6,24.2,1.9,-28.7,5.73,2.54,-27.3,30.6
2012-09-02 01:22:00,0.0,1.9351,0.0010,387.12,0.33,241.5,31.6,138.04,31.62,24.65,36.51,0.94,-25.85,18.56,-46,39,-939,24.0,19.7,-0.6,24.2,1.9,-28.7,5.73,2.56,-27.3,30.6
2012-09-02 01:23:00,0.0,1.9352,0.0009,387.35,0.28,245.3,35.6,138.04,31.62,24.65,36.51,0.93,-25.85,18.57,-46,39,-939,24.1,19.6,-0.5,24.2,1.8,-29.1,5.73,2.56,-27.2,30.6
2012-09-02 01:24:00,0.0,1.9350,0.0009,387.42,0.29,252.2,37.5,138.04,31.62,24.65,36.50,0.95,-25.85,18.59,-46,39,-939,24.1,19.9,-0.3,24.2,1.8,-29.2,5.73,2.54,-27.3,30.7
2012-09-02 01:25:00,0.0,1.9351,0.0010,387.41,0.28,245.1,31.2,138.04,31.62,24.65,36.51,0.94,-25.84,18.61,-46,39,-939,24.1,19.7,-0.5,24.3,1.8,-29.2,5.73,2.53,-27.2,30.7
2012-09-02 01:26:00,0.0,1.9353,0.0011,387.28,0.28,240.5,38.0,138.04,31.62,24.65,36.51,0.94,-25.84,18.62,-46,39,-939,24.1,19.7,-0.4,24.3,1.8,-29.1,5.73,2.54,-27.2,30.7
2012-09-02 01:27:00,0.0,1.9350,0.0007,387.17,0.30,246.0,36.2,138.04,31.62,24.65,36.50,0.94,-25.84,18.63,-46,39,-939,24.2,19.5,-0.6,24.3,1.8,-29.2,5.73,2.57,-27.2,30.8
2012-09-02 01:28:00,0.0,1.9350,0.0010,387.14,0.32,248.5,35.9,138.04,31.62,24.65,36.51,0.94,-25.84,18.65,-46,39,-939,24.2,19.7,-0.4,24.3,1.8,-29.1,5.73,2.56,-27.3,30.8
2012-09-02 01:29:00,0.0,1.9346,0.0010,387.16,0.29,253.3,31.9,138.04,31.62,24.65,36.50,0.93,-25.84,18.66,-46,39,-939,24.2,19.6,-0.5,24.3,1.8,-29.1,5.73,2.54,-27.3,30.8
2012-09-02 01:30:00,0.0,1.9348,0.0010,387.14,0.28,237.9,38.3,138.04,31.62,24.65,36.51,1.00,-25.83,17.93,-46,39,-939,24.2,19.2,-0.8,24.3,1.8,-29.1,5.73,2.53,-27.3,30.8
2012-09-02 01:31:00,0.0,1.9351,0.0009,387.19,0.33,247.3,34.1,138.04,31.62,24.65,36.51,1.12,-25.82,15.87,-46,39,-939,24.2,19.7,-0.4,24.3,1.8,-29.1,5.73,2.54,-27.3,30.9
2012-09-02 01:32:00,0.0,1.9353,0.0009,387.25,0.27,242.8,34.2,138.04,31.62,24.65,36.50,1.02,-25.83,13.51,-46,39,-939,24.2,19.8,-0.3,24.3,1.8,-29.1,5.73,2.56,-27.3,30.9
2012-09-02 01:33:00,0.0,1.9346,0.0011,387.22,0.30,246.8,33.9,138.03,31.62,24.66,36.51,0.97,-25.84,11.14,-46,39,-939,24.2,19.5,-0.5,24.3,1.8,-29.1,5.73,2.55,-27.3,30.9
2012-09-02 01:34:00,0.0,1.9349,0.0010,387.14,0.30,237.4,28.5,138.04,31.62,24.65,36.51,1.08,-25.84,8.84,-46,39,-939,24.2,19.1,-0.8,24.3,1.8,-29.1,5.73,2.54,-27.3,30.9
2012-09-02 01:35:00,0.0,1.9351,0.0011,387.12,0.41,235.5,33.5,138.04,31.62,24.65,36.50,1.05,-25.85,6.62,-46,39,-939,24.1,19.5,-0.6,24.3,1.8,-29.2,5.73,2.52,-27.4,30.9
2012-09-02 01:36:00,0.0,1.9349,0.0011,387.05,0.30,232.3,33.4,138.04,31.62,24.65,36.51,0.97,-25.85,4.52,-46,39,-939,24.1,19.1,-0.9,24.3,1.8,-29.3,5.73,2.53,-27.4,30.9
2012-09-02 01:37:00,0.0,1.9353,0.0009,387.08,0.31,239.6,37.1,138.04,31.61,24.65,36.50,1.07,-25.86,2.52,-46,39,-939,24.1,19.8,-0.4,24.2,1.8,-29.1,5.73,2.55,-27.4,30.8
2012-09-02 01:38:00,0.0,1.9355,0.0009,386.95,0.26,232.6,34.3,138.04,31.62,24.65,36.51,1.06,-25.86,0.63,-46,39,-939,24.1,20.5,0.1,24.2,1.9,-28.9,5.73,2.55,-27.4,30.8
2012-09-02 01:39:00,0.0,1.9350,0.0010,387.16,0.36,237.2,30.1,138.04,31.62,24.65,36.51,0.95,-25.86,-1.16,-46,39,-939,24.1,19.6,-0.6,24.2,1.9,-28.9,5.73,2.53,-27.4,30.8
2012-09-02 01:40:00,0.0,1.9347,0.0010,387.10,0.28,226.4,31.4,138.04,31.62,24.65,36.51,1.03,-25.87,-2.86,-46,39,-939,24.1,19.5,-0.7,24.2,1.9,-28.9,5.73,2.52,-27.4,30.8
2012-09-02 01:41:00,0.0,1.9352,0.0010,387.01,0.28,237.1,34.4,138.04,31.61,24.65,36.51,1.08,-25.87,-4.25,-46,39,-939,24.1,19.8,-0.5,24.2,1.8,-29.0,5.73,2.53,-27.4,30.8
2012-09-02 01:42:00,0.0,1.9346,0.0010,387.24,0.27,234.4,35.3,138.03,31.61,24.65,36.51,0.99,-25.88,-5.37,-46,39,-939,24.1,18.6,-1.3,24.2,1.9,-28.9,5.73,2.54,-27.4,30.7
2012-09-02 01:43:00,0.0,1.9346,0.0010,387.17,0.29,235.0,30.5,138.03,31.61,24.65,36.51,0.98,-25.88,-6.53,-46,39,-939,24.1,18.8,-1.1,24.2,1.8,-29.2,5.73,2.56,-27.4,30.7
2012-09-02 01:44:00,0.0,1.9349,0.0011,387.12,0.28,232.3,32.3,138.04,31.61,24.65,36.51,1.06,-25.89,-7.90,-46,39,-939,24.1,19.2,-0.8,24.3,1.8,-29.3,5.73,2.54,-27.4,30.8
2012-09-02 01:45:00,0.0,1.9353,0.0009,387.25,0.32,245.8,36.0,138.04,31.61,24.65,36.50,1.05,-25.89,-9.20,-46,39,-939,24.2,18.9,-1.0,24.3,1.8,-29.3,5.73,2.52,-27.4,30.8
2012-09-02 01:46:00,0.0,1.9352,0.0010,387.23,0.23,228.8,33.2,138.03,31.61,24.66,36.50,0.95,-25.91,-10.32,-46,39,-939,24.2,18.6,-1.2,24.3,1.8,-29.3,5.73,2.52,-27.4,30.8
2012-09-02 01:47:00,0.0,1.9362,0.0010,387.22,0.31,230.5,34.4,138.03,31.61,24.65,36.51,1.00,-25.92,-11.35,-46,39,-939,24.3,18.9,-0.9,24.4,1.8,-29.3,5.73,2.53,-27.4,30.8
2012-09-02 01:48:00,0.0,1.9368,0.0012,387.24,0.31,241.2,30.4,138.03,31.61,24.65,36.51,1.07,-25.93,-12.38,-46,38,-939,24.3,19.3,-0.6,24.4,1.8,-29.2,5.73,2.54,-27.4,30.8
2012-09-02 01:49:00,0.0,1.9366,0.0012,387.25,0.37,231.8,32.5,138.03,31.61,24.65,36.50,1.02,-25.93,-13.39,-46,38,-939,24.3,19.4,-0.5,24.4,1.8,-29.3,5.73,2.54,-27.4,30.8
2012-09-02 01:50:00,0.0,1.9362,0.0009,387.33,0.26,241.9,32.8,138.03,31.61,24.65,36.50,0.95,-25.95,-14.39,-46,38,-939,24.3,19.2,-0.7,24.4,1.8,-29.3,5.73,2.53,-27.4,30.8
2012-09-02 01:51:00,0.0,1.9368,0.0010,387.31,0.25,234.7,34.6,138.03,31.61,24.65,36.51,1.02,-25.96,-15.31,-46,38,-939,24.3,19.2,-0.6,24.4,1.8,-29.2,5.73,2.51,-27.5,30.8
2012-09-02 01:52:00,0.0,1.9367,0.0009,387.36,0.33,232.3,31.6,138.03,31.61,24.65,36.51,1.06,-25.97,-16.17,-46,38,-939,24.3,19.3,-0.6,24.4,1.8,-29.3,5.73,2.52,-27.5,30.8
2012-09-02 01:53:00,0.0,1.9362,0.0011,387.33,0.31,234.9,37.9,138.03,31.61,24.66,36.51,1.01,-25.98,-16.95,-46,38,-939,24.3,19.2,-0.6,24.4,1.8,-29.3,5.73,2.53,-27.5,30.7
2012-09-02 01:54:00,0.0,1.9375,0.0012,387.28,0.26,230.9,35.6,138.03,31.61,24.65,36.51,0.96,-25.99,-17.60,-46,38,-939,24.4,19.7,-0.3,24.4,1.7,-29.4,5.73,2.54,-27.5,30.7
2012-09-02 01:55:00,0.0,1.9379,0.0013,387.28,0.32,219.7,35.9,138.03,31.61,24.65,36.51,1.02,-26.00,-18.30,-46,38,-939,24.4,19.5,-0.4,24.4,1.7,-29.4,5.73,2.54,-27.5,30.7
2012-09-02 01:56:00,0.0,1.9372,0.0010,387.37,0.29,221.1,31.2,138.03,31.61,24.65,36.51,1.06,-26.02,-18.98,-46,38,-939,24.3,19.1,-0.7,24.4,1.7,-29.5,5.73,2.52,-27.5,30.7
2012-09-02 01:57:00,0.0,1.9380,0.0008,387.37,0.31,224.0,34.2,138.03,31.61,24.65,36.51,0.99,-26.03,-19.61,-46,38,-939,24.3,19.2,-0.6,24.4,1.7,-29.4,5.73,2.51,-27.5,30.7
2012-09-02 01:58:00,0.0,1.9370,0.0012,387.46,0.30,224.8,35.2,138.03,31.61,24.65,36.50,0.95,-26.04,-20.21,-46,38,-939,24.3,19.0,-0.8,24.4,1.7,-29.4,5.73,2.52,-27.6,30.7
2012-09-02 01:59:00,0.0,1.9381,0.0011,387.35,0.33,216.4,35.3,138.03,31.61,24.65,36.51,1.01,-26.05,-20.76,-46,38,-939,24.3,19.4,-0.6,24.3,1.8,-29.4,5.73,2.53,-27.6,30.7
2012-09-02 02:00:00,0.0,1.9386,0.0010,387.42,0.30,216.1,38.0,138.03,31.61,24.65,36.51,1.06,-26.07,-21.28,-46,38,-939,24.2,19.6,-0.4,24.3,1.7,-29.5,5.73,2.54,-27.6,30.7
2012-09-02 02:01:00,0.0,1.9375,0.0010,387.36,0.28,221.7,34.7,138.03,31.60,24.65,36.52,1.00,-26.08,-21.77,-46,38,-939,24.2,19.3,-0.7,24.3,1.8,-29.5,5.73,2.53,-27.6,30.7
2012-09-02 02:02:00,0.0,1.9375,0.0011,387.56,0.29,227.4,35.7,138.04,31.60,24.65,36.50,0.96,-26.09,-22.23,-46,38,-939,24.1,19.1,-0.9,24.3,1.7,-29.5,5.73,2.52,-27.6,30.7
2012-09-02 02:03:00,0.0,1.9378,0.0010,387.44,0.32,220.2,36.8,138.03,31.60,24.65,36.51,1.01,-26.10,-22.67,-45,38,-939,24.1,19.2,-0.8,24.3,1.7,-29.5,5.73,2.51,-27.6,30.6
2012-09-02 02:04:00,0.0,1.9378,0.0010,387.33,0.29,222.7,35.2,138.04,31.60,24.65,36.50,1.06,-26.11,-23.09,-45,38,-939,24.1,19.4,-0.6,24.2,1.8,-29.5,5.73,2.51,-27.7,30.6
2012-09-02 02:05:00,0.0,1.9385,0.0012,387.37,0.33,220.1,32.2,138.03,31.60,24.65,36.50,1.00,-26.12,-23.48,-46,38,-939,24.1,19.9,-0.4,24.2,1.8,-29.5,5.73,2.53,-27.7,30.6
2012-09-02 02:06:00,0.0,1.9403,0.0011,387.39,0.29,210.0,29.8,138.03,31.60,24.65,36.50,0.95,-26.14,-23.84,-46,38,-939,24.1,20.3,-0.1,24.2,1.8,-29.4,5.73,2.53,-27.7,30.6
2012-09-02 02:07:00,0.0,1.9388,0.0012,387.45,0.33,223.2,33.9,138.03,31.60,24.65,36.51,0.99,-26.15,-24.19,-45,38,-939,24.1,19.9,-0.4,24.2,1.8,-29.4,5.73,2.54,-27.7,30.6
2012-09-02 02:08:00,0.0,1.9398,0.0012,387.44,0.33,215.0,34.5,138.04,31.60,24.65,36.51,1.05,-26.17,-24.52,-45,38,-939,24.1,19.9,-0.4,24.2,1.7,-29.6,5.73,2.52,-27.6,30.6
2012-09-02 02:09:00,0.0,1.9403,0.0011,387.41,0.25,227.5,29.8,138.04,31.59,24.65,36.50,1.04,-26.18,-24.83,-45,38,-939,24.1,20.1,-0.2,24.2,1.8,-29.4,5.73,2.51,-27.6,30.6
2012-09-02 02:10:00,0.0,1.9406,0.0011,387.43,0.32,208.8,31.3,138.04,31.59,24.65,36.51,0.96,-26.20,-25.11,-45,38,-939,24.1,19.8,-0.4,24.2,1.7,-29.5,5.73,2.51,-27.7,30.6
2012-09-02 02:11:00,0.0,1.9399,0.0010,387.53,0.32,217.7,39.9,138.04,31.59,24.66,36.51,0.97,-26.21,-25.39,-45,38,-939,24.1,19.6,-0.6,24.2,1.7,-29.7,5.73,2.52,-27.6,30.6
2012-09-02 02:12:00,0.0,1.9414,0.0009,387.41,0.30,218.7,31.6,138.04,31.59,24.65,36.51,1.01,-26.22,-25.65,-45,38,-939,24.1,19.8,-0.4,24.3,1.7,-29.6,5.73,2.54,-27.6,30.6
2012-09-02 02:13:00,0.0,1.9409,0.0012,387.49,0.28,220.5,31.5,138.03,31.59,24.65,36.51,1.06,-26.23,-25.89,-45,38,-939,24.1,19.8,-0.4,24.3,1.7,-29.7,5.73,2.54,-27.6,30.6
2012-09-02 02:14:00,0.0,1.9416,0.0009,387.54,0.26,228.7,31.8,138.04,31.59,24.66,36.51,1.00,-26.24,-26.11,-46,38,-939,24.1,20.0,-0.2,24.3,1.7,-29.7,5.73,2.53,-27.6,30.6
2012-09-02 02:15:00,0.0,1.9401,0.0012,387.50,0.28,221.0,32.5,138.04,31.59,24.65,36.51,0.90,-26.25,-26.21,-46,38,-939,24.2,19.6,-0.5,24.3,1.7,-29.6,5.73,2.52,-27.6,30.6
2012-09-02 02:16:00,0.0,1.9393,0.0010,387.49,0.24,222.3,34.9,138.03,31.59,24.65,36.50,1.00,-26.27,-25.99,-46,38,-939,24.2,19.3,-0.6,24.3,1.7,-29.6,5.73,2.51,-27.6,30.6
2012-09-02 02:17:00,0.0,1.9395,0.0012,387.40,0.32,217.9,33.8,138.04,31.59,24.65,36.51,1.04,-26.28,-26.12,-46,38,-939,24.3,19.4,-0.6,24.4,1.7,-29.6,5.73,2.53,-27.6,30.7
2012-09-02 02:18:00,0.0,1.9407,0.0011,387.41,0.27,224.5,30.1,138.03,31.59,24.65,36.51,1.04,-26.28,-26.28,-46,38,-939,24.3,19.4,-0.5,24.4,1.7,-29.6,5.73,2.54,-27.6,30.6
2012-09-02 02:19:00,0.0,1.9404,0.0012,387.47,0.29,215.0,34.2,138.04,31.59,24.65,36.51,0.95,-26.29,-26.05,-46,38,-939,24.3,19.3,-0.6,24.4,1.7,-29.6,5.73,2.54,-27.7,30.7
2012-09-02 02:20:00,0.0,1.9412,0.0012,387.43,0.35,210.3,31.0,138.03,31.59,24.65,36.51,0.95,-26.30,-26.09,-46,38,-939,24.3,19.4,-0.5,24.4,1.7,-29.7,5.73,2.53,-27.6,30.6